User: anonymous   Login
Location: Unspecified
(0.0000°N, 0.0000°E)
Time: 00:21:29
(UTC+00:00)
Language:

USA 103 - Orbit

View from above orbital plane
View from above orbital plane
View from above satellite
View from above satellite

Ground track
Ground track

The orbit data is extracted from the following two-line orbital elements,

1 23097U 94026A   17020.66114265 0.00000000  00000-0  00000-0 0    06
2 23097  64.0472 151.9143 6418477 265.7001  23.9068  2.00600000    04
Epoch (UTC): 20 January 2017 15:52:02
Eccentricity: 0.6418477
inclination: 64.0472°
perigee height: 3133 km
apogee height: 37224 km
right ascension of ascending node: 151.9143°
argument of perigee: 265.7001°
revolutions per day: 2.00600000
mean anomaly at epoch: 23.9068°
orbit number at epoch: 0

The dashed part of the orbit path shows where the satellite is in the earth's shadow,  

DLR